N7LK Weather Reports


Display with metric or nautical units.
time (UTC)temp
F
wind
direction
speed
MPH
gust
MPH
rain 1hr
in
rain 24hr
in
rain mn
in
humidity
%
barometer
mb
20260504022337 88 227 5.0 10.0 0.00 0.00 0.00 15 1004.9
20260504021336 88 260 5.0 19.0 0.00 0.00 0.00 15 1004.7
20260504020356 89 223 7.0 17.0 0.00 0.00 0.00 15 1004.7
20260504015337 89 209 4.0 15.0 0.00 0.00 0.00 15 1004.1
20260504014334 90 268 5.0 15.0 0.00 0.00 0.00 15 1004.1
20260504013333 90 237 7.0 17.0 0.00 0.00 0.00 16 1004.1
20260504012332 91 316 7.0 15.0 0.00 0.00 0.00 15 1004.0
20260504011331 92 263 5.0 18.0 0.00 0.00 0.00 15 1004.2
20260504010333 92 248 2.0 17.0 0.00 0.00 0.00 14 1004.1
20260504005332 93 241 7.0 19.0 0.00 0.00 0.00 14 1004.0
20260504004332 93 252 7.0 18.0 0.00 0.00 0.00 14 1004.1
20260504003332 94 261 4.0 14.0 0.00 0.00 0.00 14 1004.1
20260504002337 94 216 6.0 18.0 0.00 0.00 0.00 13 1004.0
20260504001336 94 307 8.0 20.0 0.00 0.00 0.00 13 1004.0
20260504000337 95 206 8.0 16.0 0.00 0.00 0.00 13 1004.0
20260503235356 97 231 6.0 17.0 0.00 0.00 0.00 12 1004.0
20260503234334 97 268 6.0 15.0 0.00 0.00 0.00 12 1003.8
20260503233358 96 200 3.0 16.0 0.00 0.00 0.00 12 1003.8
20260503232355 96 281 5.0 17.0 0.00 0.00 0.00 12 1003.8
20260503231331 97 301 1.0 12.0 0.00 0.00 0.00 13 1004.1
20260503230330 97 243 4.0 12.0 0.00 0.00 0.00 12 1004.1
20260503225345 97 265 7.0 13.0 0.00 0.00 0.00 12 1004.4
20260503224328 98 264 3.0 9.0 0.00 0.00 0.00 12 1004.5
20260503223345 97 242 3.0 9.0 0.00 0.00 0.00 12 1004.6
20260503222344 97 196 4.0 10.0 0.00 0.00 0.00 13 1004.8
20260503221343 97 191 0.0 13.0 0.00 0.00 0.00 13 1005.0
20260503220402 96 164 6.0 17.0 0.00 0.00 0.00 13 1005.3
20260503215341 97 202 4.0 13.0 0.00 0.00 0.00 13 1005.4
20260503214327 96 171 1.0 10.0 0.00 0.00 0.00 13 1005.6
20260503213346 95 38 0.0 9.0 0.00 0.00 0.00 15 1005.8
20260503212405 95 137 4.0 12.0 0.00 0.00 0.00 14 1006.0
20260503211341 95 178 6.0 15.0 0.00 0.00 0.00 15 1006.3
20260503210343 95 128 8.0 18.0 0.00 0.00 0.00 14 1006.5
20260503205341 95 207 7.0 15.0 0.00 0.00 0.00 15 1006.5
20260503204400 94 180 1.0 15.0 0.00 0.00 0.00 16 1006.7
20260503203337 94 171 6.0 16.0 0.00 0.00 0.00 16 1006.9
20260503202333 95 196 7.0 14.0 0.00 0.00 0.00 16 1006.9
20260503201335 94 162 3.0 11.0 0.00 0.00 0.00 17 1007.0
20260503200355 94 186 0.0 7.0 0.00 0.00 0.00 17 1007.3
20260503195333 93 109 4.0 17.0 0.00 0.00 0.00 17 1007.5
20260503194333 93 165 8.0 13.0 0.00 0.00 0.00 17 1007.6
20260503193332 93 176 6.0 14.0 0.00 0.00 0.00 19 1007.7
20260503192335 93 114 3.0 16.0 0.00 0.00 0.00 21 1007.9
20260503191332 93 181 2.0 10.0 0.00 0.00 0.00 21 1008.1
20260503190351 92 124 6.0 10.0 0.00 0.00 0.00 20 1008.3
20260503185328 91 180 4.0 12.0 0.00 0.00 0.00 21 1008.4
20260503184349 91 171 6.0 14.0 0.00 0.00 0.00 21 1008.7
20260503183331 90 178 5.0 10.0 0.00 0.00 0.00 21 1008.8
20260503182331 90 155 4.0 11.0 0.00 0.00 0.00 23 1008.9
20260503181329 89 164 3.0 10.0 0.00 0.00 0.00 23 1009.1
20260503180329 88 161 4.0 9.0 0.00 0.00 0.00 24 1009.3
20260503175328 88 165 0.0 9.0 0.00 0.00 0.00 24 1009.5
20260503174332 88 179 7.0 14.0 0.00 0.00 0.00 24 1009.6
20260503173332 87 146 2.0 9.0 0.00 0.00 0.00 24 1009.6
20260503172333 87 186 2.0 12.0 0.00 0.00 0.00 25 1009.6
20260503171330 87 54 0.0 10.0 0.00 0.00 0.00 25 1009.7
20260503170332 86 112 5.0 11.0 0.00 0.00 0.00 25 1009.7
20260503150339 80 64 1.0 11.0 0.00 0.00 0.00 31 1009.7
20260503131326 76 65 1.0 5.0 0.00 0.00 0.00 32 1008.9
20260503130329 77 124 1.0 6.0 0.00 0.00 0.00 32 1008.8
20260503110340 78 75 1.0 5.0 0.00 0.00 0.00 29 1008.5
20260503090338 78 69 1.0 4.0 0.00 0.00 0.00 24 1008.5
20260503081335 78 67 0.0 0.0 0.00 0.00 0.00 24 1008.8
20260503080333 78 67 0.0 0.0 0.00 0.00 0.00 24 1008.8
20260503072334 79 67 0.0 0.0 0.00 0.00 0.00 23 1009.0
20260503071333 79 95 0.0 1.0 0.00 0.00 0.00 23 1009.0
20260503070350 79 116 0.0 0.0 0.00 0.00 0.00 23 1009.1
20260503060330 77 197 0.0 0.0 0.00 0.00 0.00 30 1008.4
20260503054348 78 204 0.0 0.0 0.00 0.00 0.00 31 1008.4
20260503053345 78 204 0.0 0.0 0.00 0.00 0.00 29 1008.3
20260503052403 78 205 0.0 0.0 0.00 0.00 0.00 28 1008.2
20260503051344 79 205 0.0 0.0 0.00 0.00 0.00 28 1008.4
20260503050342 79 204 0.0 0.0 0.00 0.00 0.00 28 1008.4
20260503045341 79 102 0.0 0.0 0.00 0.00 0.00 28 1008.3
20260503044339 80 94 0.0 0.0 0.00 0.00 0.00 26 1008.2
20260503043335 80 94 0.0 0.0 0.00 0.00 0.00 26 1008.1
20260503042358 81 94 0.0 0.0 0.00 0.00 0.00 25 1008.0
20260503041335 82 95 0.0 0.0 0.00 0.00 0.00 24 1007.9
20260503040354 83 95 0.0 0.0 0.00 0.00 0.00 22 1007.7
20260503035332 83 95 0.0 0.0 0.00 0.00 0.00 22 1007.7
20260503034330 84 95 0.0 0.0 0.00 0.00 0.00 20 1007.5
20260503033334 85 95 0.0 0.0 0.00 0.00 0.00 20 1007.5
20260503032331 85 95 0.0 0.0 0.00 0.00 0.00 18 1007.3
20260503031329 86 130 0.0 0.0 0.00 0.00 0.00 17 1007.1
20260503030328 86 130 0.0 0.0 0.00 0.00 0.00 17 1007.2
20260503025352 87 131 0.0 0.0 0.00 0.00 0.00 16 1007.3
20260503024329 88 131 0.0 0.0 0.00 0.00 0.00 16 1007.1
20260503023328 88 136 0.0 1.0 0.00 0.00 0.00 15 1007.1